[[{"header":{"parameterUnit":"m.s-1","parameterCategory":1,"la1":30.2991,"la2":30.254,"lo1":-89.0895,"lo2":-89.0444,"dy":0.0017,"dx":0.0017,"nx":28,"ny":28,"refTime":"2026-01-29T03:00:00:Z","depth":0,"parameterNumber":2,"parameterNumberName":"U-component_of_WINDS"},"data":[0,0,0,0,0,0,0,0,0,0,0,0,0,0,0,0,0,0,0,0,0,0,0,0,0,0,0,0,0,0,0,0,0,0,0,0,0,0,0,0,0,0,0,0,0,0,0,0,0,0,0,0,0,0,0,0,0,0,2.9636,2.9636,0,2.9602,2.9601,2.9601,2.9534,2.9532,2.9531,2.953,2.9494,2.9495,2.9495,0,0,0,0,0,0,0,0,0,0,0,0,0,2.9645,2.9645,2.9636,2.9636,2.9635,2.9602,2.9601,2.9601,2.9534,2.9532,2.9531,2.9529,2.9494,2.9495,2.9495,0,0,0,0,0,0,0,0,0,0,0,0,0,2.9629,2.9646,2.9636,2.9598,2.9594,2.9602,2.9601,2.9601,2.9534,2.9532,2.953,2.9528,2.9494,2.9495,2.9495,2.9538,0,0,2.9497,2.9497,0,0,0,0,0,0,0,0,2.963,2.9629,2.9604,2.9601,2.9596,2.957,2.9592,2.958,2.9535,2.9557,2.953,2.9527,2.9521,2.9519,2.9517,2.9536,2.9535,2.9497,2.9497,2.9497,2.9497,0,0,0,0,0,0,0,2.9631,2.963,2.9623,2.9604,2.9599,2.9583,2.9578,2.9589,2.9551,2.9555,2.955,2.9547,2.9519,2.9517,2.9516,2.9534,2.9497,2.9497,2.9497,2.9497,2.9589,2.9591,0,0,0,0,0,0,2.9638,2.9631,2.9624,2.9622,2.9609,2.9584,2.9579,2.958,2.955,2.9544,2.9548,2.9544,2.9517,2.9515,2.9514,2.9564,2.9497,2.9497,2.9498,2.9587,2.959,2.9592,0,0,0,0,0,0,2.9639,2.9638,2.9625,2.9625,2.9622,2.9586,2.9588,2.9581,2.9579,2.9545,2.9538,2.9554,2.9516,2.9514,2.9533,2.9562,2.9498,2.9498,2.9585,2.9588,2.9591,2.9663,0,0,0,0,0,0,2.9639,2.9639,2.9654,2.9626,2.9623,2.9644,2.959,2.9582,2.958,2.9573,2.9548,2.9542,2.9514,2.9533,2.9534,2.9561,2.9498,2.9582,2.9586,2.959,2.9658,2.9668,2.9677,0,0,0,0,0,2.964,2.9675,2.9655,2.9654,2.9641,2.9646,2.9644,2.961,2.9582,2.9598,2.9577,2.9543,2.9559,2.9535,2.9536,2.9564,2.958,2.9585,2.959,2.9653,2.9666,2.9677,0,0,0,0,0,0,2.9706,2.9671,2.9648,2.9675,2.9664,2.9634,2.9653,2.9624,2.9621,2.9615,2.9573,2.9568,2.9594,2.958,2.9555,2.9605,2.9564,2.9569,2.9613,2.9624,2.9634,2.9637,2.9499,0,0,0,0,0,2.9725,2.9731,2.97,2.9727,2.9723,2.9689,2.969,2.9665,2.9652,2.9647,2.9627,2.9616,2.9618,2.962,2.962,2.9656,2.965,2.9676,2.9685,2.9693,2.9698,2.9718,2.9729,2.9608,2.9608,2.9608,0,0,2.9762,2.9743,2.9749,2.974,2.9728,2.9737,2.9685,2.9696,2.9702,2.9648,2.9666,2.9651,2.9636,2.9664,2.9675,2.9654,2.9731,2.97,2.9706,2.9707,2.9724,2.9736,2.9746,2.9611,2.9611,2.961,0,0,2.9834,2.982,2.9842,2.9832,2.9816,2.9794,2.9799,2.9774,2.9763,2.9779,2.974,2.9747,2.9751,2.9743,2.9739,2.9811,2.9781,2.9812,2.9863,2.9883,2.9892,2.9901,2.9928,2.9938,2.9818,2.9818,2.9818,0,2.9882,2.9893,2.9857,2.9871,2.9869,2.9821,2.9844,2.9836,2.9821,2.9821,2.9797,2.9803,2.9789,2.9816,2.9834,2.9832,2.9838,2.9815,2.9894,2.9902,2.9909,2.9934,2.9945,2.9822,2.9821,2.9821,2.9821,0,2.9954,2.9963,2.9983,2.997,2.997,2.9988,2.9956,2.996,2.9936,2.9917,2.9936,2.9918,2.9915,2.9919,2.9895,2.9943,2.9931,2.9901,2.9859,2.9925,2.9948,2.9958,2.9828,2.9826,2.9825,2.9824,0,0,3.0067,3.0035,3.0043,3.0038,3.0017,3.0024,3.0041,3.0038,3.0043,3.0035,3.0049,3.0055,3.0028,3.0024,2.9999,3.0016,3.0077,2.9985,2.9984,3.0003,3.013,3.0153,3.0165,3.0057,3.0058,3.006,3.0132,0,3.0135,3.0162,3.0131,3.0165,3.0174,3.013,3.0145,3.0135,3.0118,3.0123,3.0104,3.011,3.0073,3.007,3.0086,3.0066,3.0102,3.006,3.007,3.0071,3.0076,3.0177,3.0201,3.027,3.0141,3.0142,3.0143,0,3.0218,3.0215,3.025,3.023,3.0232,3.0246,3.0242,3.0247,3.0235,3.0222,3.0219,3.0189,3.0206,3.0165,3.0188,3.0161,3.0163,3.0154,3.0156,3.0156,3.0111,3.0181,3.0291,3.0302,3.0157,3.0156,3.0155,0,3.0299,3.0303,3.0325,3.0321,3.0297,3.0309,3.0299,3.0285,3.0286,3.0283,3.0284,3.0283,3.0282,3.0282,3.0254,3.0227,3.0281,3.0237,3.0271,3.0272,3.0285,3.0284,3.0398,3.0285,3.0285,3.0285,3.0285,0,3.0379,3.0403,3.0361,3.0375,3.0401,3.0365,3.0392,3.0378,3.0366,3.0377,3.0339,3.035,3.0311,3.0319,3.0296,3.032,3.032,3.031,3.0304,3.0314,3.0315,3.0315,3.031,3.0288,3.0287,3.0287,3.0286,0,3.0473,3.0446,3.0467,3.0444,3.0438,3.0459,3.0438,3.045,3.0432,3.0446,3.0447,3.0418,3.0425,3.0397,3.0398,3.0384,3.0419,3.0404,3.0423,3.0419,3.0455,3.0452,3.0573,3.0587,3.0465,3.0466,3.0467,0,3.0526,3.0544,3.0522,3.0527,3.052,3.0528,3.0529,3.0495,3.0499,3.0488,3.0502,3.0505,3.0507,3.052,3.0499,3.0501,3.0487,3.0529,3.0487,3.0497,3.0489,3.0489,3.0491,3.0538,3.054,3.0541,3.0542,0,3.0624,3.0611,3.0614,3.0614,3.0617,3.0614,3.0609,3.0616,3.058,3.0585,3.0592,3.0594,3.0596,3.0601,3.0599,3.059,3.0561,3.0555,3.0563,3.0574,3.0585,3.0581,3.0448,3.0553,3.0552,3.0551,3.055,3.055,3.07,3.0715,3.0702,3.0708,3.0701,3.0698,3.0709,3.0692,3.0697,3.0697,3.0677,3.0689,3.0678,3.0672,3.0666,3.0675,3.0655,3.0667,3.067,3.0673,3.068,3.0583,3.0674,3.0674,3.0674,3.0673,3.0673,0,3.0798,3.0788,3.0794,3.0789,3.0794,3.0766,3.076,3.0766,3.0776,3.0769,3.0771,3.0781,3.0786,3.0766,3.0768,3.078,3.0766,3.0782,3.0781,3.0779,3.0697,3.069,3.0792,3.0792,3.0792,3.0792,3.0792,3.0792,3.0849,3.0872,3.0857,3.0877,3.0867,3.0878,3.0877,3.0875,3.0869,3.0881,3.0885,3.0872,3.086,3.0862,3.0866,3.086,3.0863,3.0883,3.0873,3.0796,3.0785,3.0774,3.0767,3.0884,3.0884,3.0955,3.0956,3.0956]},{"header":{"parameterUnit":"m.s-1","parameterCategory":1,"la1":30.2991,"la2":30.254,"lo1":-89.0895,"lo2":-89.0444,"dy":0.0017,"dx":0.0017,"nx":28,"ny":28,"refTime":"2026-01-29T03:00:00:Z","depth":0,"parameterNumber":3,"parameterNumberName":"V-component_of_WINDS"},"data":[0,0,0,0,0,0,0,0,0,0,0,0,0,0,0,0,0,0,0,0,0,0,0,0,0,0,0,0,0,0,0,0,0,0,0,0,0,0,0,0,0,0,0,0,0,0,0,0,0,0,0,0,0,0,0,0,0,0,-2.3476,-2.3473,0,-2.3185,-2.3182,-2.3178,-2.3075,-2.3076,-2.3077,-2.3078,-2.2768,-2.2759,-2.275,0,0,0,0,0,0,0,0,0,0,0,0,0,-2.3936,-2.3928,-2.3476,-2.3473,-2.3469,-2.3186,-2.3182,-2.3178,-2.3075,-2.3076,-2.3077,-2.3078,-2.2772,-2.2761,-2.2749,0,0,0,0,0,0,0,0,0,0,0,0,0,-2.37,-2.3926,-2.3477,-2.3384,-2.3373,-2.3186,-2.3181,-2.3176,-2.3074,-2.3076,-2.3078,-2.3079,-2.2775,-2.2762,-2.2748,-2.263,0,0,-2.2706,-2.27,0,0,0,0,0,0,0,0,-2.3713,-2.3683,-2.3401,-2.339,-2.3377,-2.3168,-2.323,-2.2993,-2.3074,-2.3187,-2.3078,-2.308,-2.2899,-2.2875,-2.2817,-2.2615,-2.2602,-2.2704,-2.2696,-2.269,-2.2686,0,0,0,0,0,0,0,-2.373,-2.3695,-2.3361,-2.3397,-2.3382,-2.3354,-2.3322,-2.3185,-2.3037,-2.3177,-2.3169,-2.3137,-2.2893,-2.283,-2.2809,-2.2597,-2.2705,-2.2692,-2.2684,-2.2678,-2.2287,-2.2285,0,0,0,0,0,0,-2.3763,-2.3709,-2.337,-2.3352,-2.3553,-2.3345,-2.3309,-2.3233,-2.3039,-2.3011,-2.3136,-2.3133,-2.2853,-2.2825,-2.2797,-2.2648,-2.269,-2.2677,-2.2669,-2.2289,-2.2287,-2.2285,0,0,0,0,0,0,-2.3773,-2.3734,-2.3382,-2.3528,-2.3481,-2.3335,-2.3251,-2.3227,-2.3164,-2.3007,-2.298,-2.3099,-2.2854,-2.2817,-2.2674,-2.2636,-2.2671,-2.2658,-2.2292,-2.2289,-2.2286,-2.2347,0,0,0,0,0,0,-2.3787,-2.3738,-2.3693,-2.3528,-2.3474,-2.3265,-2.3248,-2.322,-2.3142,-2.3136,-2.2966,-2.2939,-2.2852,-2.2695,-2.266,-2.2617,-2.2647,-2.2295,-2.229,-2.2287,-2.2348,-2.2347,-2.2346,0,0,0,0,0,-2.3804,-2.3718,-2.3691,-2.3651,-2.3415,-2.3263,-2.3232,-2.3136,-2.3139,-2.3092,-2.2992,-2.2944,-2.2647,-2.2681,-2.2641,-2.2593,-2.2296,-2.2292,-2.2287,-2.2348,-2.2347,-2.2346,0,0,0,0,0,0,-2.3876,-2.3695,-2.3662,-2.3522,-2.341,-2.3246,-2.3183,-2.3137,-2.3018,-2.3017,-2.2901,-2.2863,-2.273,-2.2647,-2.2689,-2.2471,-2.2468,-2.2456,-2.2529,-2.2526,-2.2525,-2.2547,-2.2636,0,0,0,0,0,-2.3878,-2.3772,-2.3618,-2.3509,-2.3455,-2.3329,-2.3259,-2.3197,-2.3074,-2.3024,-2.2913,-2.2793,-2.2673,-2.2595,-2.2475,-2.2337,-2.2299,-2.2285,-2.2284,-2.2283,-2.2273,-2.2196,-2.2188,-2.227,-2.227,-2.227,0,0,-2.3875,-2.3763,-2.3703,-2.3521,-2.3426,-2.3318,-2.3289,-2.3174,-2.3093,-2.3005,-2.2865,-2.278,-2.2638,-2.2498,-2.2431,-2.2425,-2.2243,-2.2278,-2.2279,-2.2267,-2.219,-2.2183,-2.2176,-2.2266,-2.2267,-2.2267,0,0,-2.3817,-2.3722,-2.3622,-2.353,-2.339,-2.3308,-2.3285,-2.3129,-2.3071,-2.2929,-2.2863,-2.2763,-2.2557,-2.246,-2.2383,-2.2296,-2.2248,-2.226,-2.2253,-2.218,-2.2173,-2.2167,-2.2136,-2.2127,-2.2251,-2.2251,-2.2251,0,-2.3831,-2.3669,-2.3576,-2.3467,-2.3389,-2.3311,-2.3209,-2.3122,-2.2948,-2.2895,-2.2893,-2.2637,-2.2536,-2.2373,-2.2353,-2.2294,-2.2263,-2.2277,-2.2183,-2.2175,-2.2168,-2.2137,-2.2126,-2.2253,-2.2253,-2.2253,-2.2253,0,-2.3694,-2.3583,-2.3519,-2.3359,-2.3274,-2.3168,-2.3058,-2.2983,-2.293,-2.2848,-2.2706,-2.2583,-2.2439,-2.2396,-2.234,-2.2226,-2.2228,-2.2206,-2.2201,-2.2164,-2.2134,-2.2121,-2.2257,-2.2256,-2.2255,-2.2255,0,0,-2.3668,-2.3464,-2.3441,-2.337,-2.3212,-2.3123,-2.3015,-2.2879,-2.2817,-2.2701,-2.2607,-2.2439,-2.2419,-2.2333,-2.2266,-2.2202,-2.2143,-2.2187,-2.2182,-2.2183,-2.2011,-2.2029,-2.2017,-2.2112,-2.2109,-2.2107,-2.2023,0,-2.3589,-2.3396,-2.3312,-2.3157,-2.3053,-2.2981,-2.2887,-2.278,-2.2702,-2.2601,-2.2514,-2.2397,-2.2379,-2.2327,-2.2261,-2.2164,-2.2106,-2.2169,-2.2021,-2.2017,-2.2058,-2.2,-2.2016,-2.1943,-2.2011,-2.2009,-2.2007,0,-2.3469,-2.336,-2.3196,-2.3055,-2.3008,-2.2926,-2.2797,-2.2702,-2.2579,-2.2527,-2.2435,-2.2373,-2.2256,-2.2263,-2.21,-2.2145,-2.208,-2.2024,-2.2019,-2.1999,-2.2009,-2.1979,-2.1917,-2.1906,-2.1987,-2.1989,-2.199,0,-2.3468,-2.3278,-2.3157,-2.3097,-2.293,-2.2874,-2.2801,-2.2681,-2.2606,-2.2492,-2.2443,-2.2316,-2.2245,-2.2148,-2.2053,-2.2066,-2.19,-2.1898,-2.1852,-2.1855,-2.1817,-2.1821,-2.1744,-2.1778,-2.1779,-2.1779,-2.1779,0,-2.3387,-2.3289,-2.3155,-2.3079,-2.2969,-2.2874,-2.2766,-2.2687,-2.2582,-2.2489,-2.2418,-2.2332,-2.2213,-2.2112,-2.2037,-2.1914,-2.1883,-2.1836,-2.1817,-2.1842,-2.1848,-2.1796,-2.1798,-2.1776,-2.1776,-2.1777,-2.1778,0,-2.3364,-2.327,-2.3133,-2.2989,-2.2951,-2.2876,-2.2751,-2.2675,-2.2597,-2.2481,-2.2448,-2.2324,-2.2202,-2.2099,-2.1936,-2.1886,-2.1759,-2.1737,-2.1802,-2.1792,-2.1752,-2.1758,-2.1638,-2.1618,-2.1668,-2.1667,-2.1667,0,-2.3318,-2.3243,-2.3093,-2.3029,-2.2959,-2.2854,-2.278,-2.2684,-2.2609,-2.2467,-2.2408,-2.2283,-2.2177,-2.1985,-2.1878,-2.1755,-2.1728,-2.1696,-2.1708,-2.1737,-2.1728,-2.1733,-2.1725,-2.1694,-2.1694,-2.1694,-2.1694,0,-2.3247,-2.3206,-2.3103,-2.2985,-2.29,-2.2801,-2.27,-2.265,-2.2536,-2.2455,-2.2332,-2.2251,-2.209,-2.1965,-2.1832,-2.1754,-2.1704,-2.1692,-2.1674,-2.1697,-2.1739,-2.1717,-2.1799,-2.1693,-2.1693,-2.1693,-2.1693,-2.1693,-2.321,-2.3141,-2.3027,-2.2916,-2.2832,-2.2741,-2.2664,-2.2579,-2.2477,-2.2341,-2.229,-2.2165,-2.2047,-2.1864,-2.1787,-2.1686,-2.1679,-2.1654,-2.1647,-2.1642,-2.1647,-2.1758,-2.1661,-2.1661,-2.1661,-2.1661,-2.1661,0,-2.3135,-2.306,-2.296,-2.2824,-2.2737,-2.2705,-2.2593,-2.2521,-2.2413,-2.231,-2.221,-2.2071,-2.1952,-2.1839,-2.1714,-2.1655,-2.163,-2.1626,-2.1628,-2.1611,-2.166,-2.1687,-2.1649,-2.1649,-2.1649,-2.1649,-2.1649,-2.1649,-2.3086,-2.2969,-2.2915,-2.2756,-2.268,-2.2561,-2.25,-2.2416,-2.2334,-2.2183,-2.2086,-2.2015,-2.1908,-2.1776,-2.1666,-2.1635,-2.1592,-2.1594,-2.1558,-2.1605,-2.1607,-2.1609,-2.1635,-2.1586,-2.1586,-2.1517,-2.1517,-2.1516]}]]